Salmon, ID

9:35 AM MDT on September 19, 2018 (GMT -0600)
Lemhi County

Weather History for KSMN - July, 2018

Change the Weather History Date:

Thursday, July 12, 2018

  Actual Average Record
Temperature  
Mean Temperature 71 °F -  
Max Temperature 89 °F 83 °F 102 °F (2005)
Min Temperature 53 °F 48 °F 39 °F (1974)
Cooling Degree Days 6    
Growing Degree Days 21 (Base 50)    
Moisture  
Dew Point 47 °F    
Average Humidity 44    
Maximum Humidity 77    
Minimum Humidity 21    
Precipitation  
Precipitation 0.00 in - - ()
Sea Level Pressure  
Sea Level Pressure 30.00 in    
Wind  
Wind Speed 2 mph (NW)    
Max Wind Speed 6 mph    
Max Gust Speed -    
Visibility 10 miles    
Events      
Averages and records for this station are not official NWS values.
T = Trace of Precipitation, MM = Missing Value Source: NWS Daily Summary

Daily Weather History Graph

Daily Weather History Graph

Search for Another Location

Airport or City:

Astronomy

Jul. 12, 2018 Rise Set
Actual Time 6:00 AM MDT 9:21 PM MDT
Civil Twilight 5:23 AM MDT 9:58 PM MDT
Nautical Twilight 4:36 AM MDT 10:45 PM MDT
Astronomical Twilight 3:36 AM MDT 11:44 PM MDT
Moon 5:33 AM MDT (7/12) 9:07 PM MDT (7/12)
Length of Visible Light 16h 34m
Length of Day
15h 21m
Waning Crescent, 0% of the Moon is Illuminated
Jul 12
Waning Crescent
Jul 12
New
Jul 19
First Quarter
Jul 27
Full
Aug 4
Last Quarter

Hourly Weather History & Observations

Time (MDT) Temp. Dew Point Humidity Pressure Visibility Wind Dir Wind Speed Gust Speed Precip Events Conditions
12:56 AM 64.9 °F 45.0 °F 48% 29.99 in 10.0 mi ESE 3.5 mph - N/A   Clear
1:56 AM 64.0 °F 45.0 °F 50% 29.99 in 10.0 mi East 4.6 mph - N/A   Clear
2:56 AM 62.1 °F 46.0 °F 56% 30.00 in 10.0 mi Calm Calm - N/A   Clear
3:56 AM 59.0 °F 46.0 °F 62% 30.01 in 10.0 mi Calm Calm - N/A   Clear
4:56 AM 57.0 °F 46.9 °F 69% 30.03 in 10.0 mi Calm Calm - N/A   Clear
5:56 AM 53.1 °F 46.0 °F 77% 30.06 in 10.0 mi Calm Calm - N/A   Clear
6:56 AM 54.0 °F 45.0 °F 72% 30.06 in 10.0 mi Calm Calm - N/A   Clear
7:56 AM 57.9 °F 48.9 °F 72% 30.07 in 10.0 mi Calm Calm - N/A   Clear
8:56 AM 64.0 °F 48.0 °F 56% 30.08 in 10.0 mi Calm Calm - N/A   Clear
9:56 AM 69.1 °F 48.0 °F 47% 30.06 in 10.0 mi North 4.6 mph - N/A   Clear
10:56 AM 72.0 °F 46.0 °F 40% 30.04 in 10.0 mi Variable 3.5 mph - N/A   Clear
11:56 AM 75.9 °F 48.0 °F 37% 30.03 in 10.0 mi Variable 3.5 mph - N/A   Clear
12:56 PM 79.0 °F 46.9 °F 32% 30.01 in 10.0 mi Calm Calm - N/A   Clear
1:56 PM 82.0 °F 46.0 °F 28% 29.99 in 10.0 mi Calm Calm - N/A   Clear
2:56 PM 84.0 °F 45.0 °F 25% 29.97 in 6.0 mi Variable 5.8 mph - N/A   Haze
3:56 PM 87.1 °F 46.9 °F 25% 29.96 in 10.0 mi WNW 5.8 mph - N/A   Clear
4:56 PM 88.0 °F 45.0 °F 22% 29.94 in 10.0 mi Variable 3.5 mph - N/A   Clear
5:56 PM 89.1 °F 44.1 °F 21% 29.94 in 9.0 mi NW 5.8 mph - N/A   Clear
6:56 PM 88.0 °F 46.9 °F 24% 29.93 in 10.0 mi WNW 4.6 mph - N/A   Clear
7:56 PM 86.0 °F 50.0 °F 29% 29.93 in 9.0 mi WNW 4.6 mph - N/A   Clear
8:56 PM 75.9 °F 48.9 °F 38% 29.94 in 10.0 mi Calm Calm - N/A   Clear
9:56 PM 75.9 °F 46.0 °F 35% 29.96 in 10.0 mi SE 4.6 mph - N/A   Clear
11:56 PM 66.9 °F 48.0 °F 51% 30.01 in 10.0 mi South 4.6 mph - N/A   Clear